Location: State Camp
(41.2367°N, 77.7828°W)
Time: 18:03:40
(UTC-04:00)

ADEOS Rocket - Visible Passes

Search period start: 29 July 2015 00:00
Search period end: 08 August 2015 00:00
Orbit: 860 x 1306 km, 98.7° (Epoch: 28 July)

Date Brightness Start Highest point End Pass type
(mag) Time Alt. Az. Time Alt. Az. Time Alt. Az.
29 Jul 6.2 21:38:05 10° WSW 21:41:33 13° W 21:44:27 10° WNW visible
31 Jul 6.4 21:47:42 10° W 21:49:36 11° W 21:50:48 10° WNW visible
01 Aug 5.8 20:53:23 10° SW 20:59:39 27° W 21:05:52 10° NW visible
03 Aug 5.9 21:01:41 10° SW 21:07:38 23° W 21:13:24 10° NW visible
05 Aug 6.0 21:10:06 10° SW 21:15:37 20° W 21:20:50 10° NW visible
07 Aug 6.1 21:18:40 10° SW 21:23:37 17° W 21:28:09 10° NW visible
